FW5173 Weather Reports


time (UTC)temp
F
wind
direction
speed
knots
gust
knots
rain 1hr
in
rain 24hr
in
rain mn
in
humidity
%
barometer
mb
20260906051538 0 0.0 0.0 0.00 0.01 0.01 1009.9
20260906050037 0 0.0 0.0 0.00 0.01 0.01 1009.9
20260906044536 0 0.0 0.0 0.00 0.01 0.01 1010.0
20260906043036 0 0.0 0.0 0.00 0.01 0.01 1009.9
20260906041536 0 0.0 0.0 0.00 0.01 0.01 1009.7
20260906040037 0 0.0 0.0 0.00 0.01 0.01 1009.9
20260906034552 0 0.0 0.0 0.00 0.01 0.01 1010.1
20260906033039 0 0.0 0.0 0.00 0.01 0.01 1010.3
20260906031536 0 0.0 0.0 0.00 0.01 0.01 1010.3
20260906030036 0 0.0 0.0 0.00 0.01 0.01 1010.3
20260906024536 0 0.0 0.0 0.00 0.01 0.01 1010.2
20260906023033 0 0.0 0.0 0.00 0.01 0.01 1009.9
20260906021538 0 0.0 0.0 0.00 0.01 0.01 1009.8
20260906020024 0 0.0 0.0 0.00 0.01 0.01 1009.9
20260906014522 0 0.0 0.0 0.00 0.01 0.01 1009.7
20260906013018 0 0.0 0.0 0.00 0.01 0.01 1009.8
20260906011513 0 0.0 0.0 0.00 0.01 0.01 1009.2
20260906010009 0 0.0 0.0 0.00 0.01 0.01 1009.3
20260906004506 0 0.0 0.0 0.00 0.01 0.01 1009.0
20260906003003 0 0.0 0.0 0.00 0.01 0.01 1008.7
20260906001606 0 0.0 0.0 0.00 0.01 0.01 1008.5
20260906000056 76 289 0.0 3.5 0.00 0.01 0.01 92 1008.4
20260905234555 76 256 0.0 2.6 0.00 0.01 0.01 92 1008.2
20260905233055 77 297 0.0 0.9 0.00 0.01 0.01 89 1008.1
20260905231556 79 293 0.0 1.7 0.00 0.01 0.01 87 1008.0
20260905230053 81 281 0.0 0.0 0.00 0.01 0.01 83 1007.9
20260905224553 85 250 0.0 0.0 0.00 0.01 0.01 76 1007.7
20260905223056 86 246 0.0 0.0 0.00 0.01 0.01 72 1007.8
20260905221557 85 239 0.0 0.0 0.00 0.01 0.01 74 1007.9
20260905220051 85 275 0.0 0.0 0.00 0.01 0.01 75 1007.9
20260905214551 84 260 0.0 3.5 0.00 0.01 0.01 75 1007.8
20260905213050 84 221 0.9 2.6 0.00 0.01 0.01 77 1008.0
20260905211549 83 217 0.0 2.6 0.00 0.01 0.01 79 1008.1
20260905210059 80 231 0.0 2.6 0.00 0.01 0.01 82 1008.2
20260905204547 78 277 0.9 4.3 0.00 0.01 0.01 83 1008.4
20260905203047 78 238 0.0 4.3 0.00 0.01 0.01 86 1008.8
20260905201547 77 252 0.0 1.7 0.00 0.01 0.01 86 1008.8
20260905200111 77 260 0.0 2.6 0.00 0.01 0.01 87 1009.0
20260905194546 76 293 0.9 3.5 0.00 0.01 0.01 87 1009.1
20260905193046 76 272 0.0 3.5 0.00 0.01 0.01 88 1009.2
20260905191546 75 269 0.0 3.5 0.00 0.01 0.01 89 1009.1
20260905190044 75 216 0.0 2.6 0.01 0.01 0.01 88 1009.3
20260905184549 76 217 0.9 6.1 0.01 0.01 0.01 89 1009.3
20260905183043 76 250 0.9 7.0 0.01 0.01 0.01 89 1008.8
20260905181544 79 259 0.0 2.6 0.01 0.01 0.01 83 1008.3
20260905180039 85 358 2.6 17.4 0.00 0.00 0.00 67 1008.8
20260905174535 90 330 3.5 7.0 0.00 0.00 0.00 62 1009.8
20260905173042 93 349 1.7 5.2 0.00 0.00 0.00 61 1009.4
20260905171536 93 8 0.9 4.3 0.00 0.00 0.00 59 1009.6
20260905170032 93 65 0.9 7.8 0.00 0.00 0.00 61 1009.6
20260905164526 93 292 2.6 7.8 0.00 0.00 0.00 61 1009.7
20260905163024 92 295 2.6 7.0 0.00 0.00 0.00 64 1009.8
20260905161522 92 266 1.7 5.2 0.00 0.00 0.00 66 1010.2
20260905160020 92 115 2.6 7.8 0.00 0.00 0.00 65 1010.4
20260905154518 90 142 1.7 2.6 0.00 0.00 0.00 71 1010.5
20260905153025 89 79 0.9 3.5 0.00 0.00 0.00 74 1010.2
20260905151513 88 89 0.0 2.6 0.00 0.00 0.00 73 1010.2
20260905150019 87 73 1.7 3.5 0.00 0.00 0.00 75 1010.2
20260905144514 87 50 0.0 1.7 0.00 0.00 0.00 77 1010.3
20260905143008 85 220 0.0 2.6 0.00 0.00 0.00 77 1010.3
20260905141509 84 249 0.0 1.7 0.00 0.00 0.00 82 1010.5
20260905140003 83 277 0.0 0.0 0.00 0.00 0.00 81 1010.5
20260905134600 81 265 0.0 1.7 0.00 0.00 0.00 85 1010.6
20260905133056 80 205 0.0 0.9 0.00 0.00 0.00 88 1010.6
20260905131602 0 0.0 0.0 0.00 0.00 0.00 1010.9
20260905130050 0 0.0 0.0 0.00 0.00 0.00 1011.0
20260905124546 0 0.0 0.0 0.00 0.00 0.00 1011.2
20260905123102 0 0.0 0.0 0.00 0.00 0.00 1011.0
20260905121536 0 0.0 0.0 0.00 0.00 0.00 1010.9
20260905120032 0 0.0 0.0 0.00 0.00 0.00 1010.9
20260905114530 0 0.0 0.0 0.00 0.00 0.00 1010.8
20260905113028 0 0.0 0.0 0.00 0.00 0.00 1010.6
20260905111524 0 0.0 0.0 0.00 0.00 0.00 1010.3
20260905110017 0 0.0 0.0 0.00 0.00 0.00 1010.0
20260905104514 0 0.0 0.0 0.00 0.00 0.00 1009.8
20260905103011 0 0.0 0.0 0.00 0.00 0.00 1009.8
20260905101506 0 0.0 0.0 0.00 0.00 0.00 1009.7
20260905100001 0 0.0 0.0 0.00 0.00 0.00 1009.7
20260905094503 0 0.0 0.0 0.00 0.00 0.00 1009.7
20260905093058 0 0.0 0.0 0.00 0.00 0.00 1009.6
20260905091555 0 0.0 0.0 0.00 0.00 0.00 1009.6
20260905090048 0 0.0 0.0 0.00 0.00 0.00 1009.8
20260905084550 0 0.0 0.0 0.00 0.00 0.00 1009.8
20260905083038 0 0.0 0.0 0.00 0.00 0.00 1010.1
20260905081534 0 0.0 0.0 0.00 0.00 0.00 1010.1
20260905080053 0 0.0 0.0 0.00 0.00 0.00 1010.3
20260905074532 0 0.0 0.0 0.00 0.00 0.00 1010.6
20260905073027 0 0.0 0.0 0.00 0.00 0.00 1010.7
20260905071522 0 0.0 0.0 0.00 0.00 0.00 1010.7
20260905070028 0 0.0 0.0 0.00 0.00 0.00 1010.7
20260905064513 0 0.0 0.0 0.00 0.00 0.00 1010.8
20260905063009 0 0.0 0.0 0.00 0.00 0.00 1010.9
20260905061504 0 0.0 0.0 0.00 0.00 0.00 1011.2
20260905060107 0 0.0 0.0 0.00 0.00 0.00 1011.4
20260905054604 0 0.0 0.0 0.00 0.00 0.00 1011.5
20260905053107 0 0.0 0.0 0.00 0.00 0.00 1011.5